Location: Miss�
(46.9484°N, 0.1922°W)
Time: 19:28:34
(UTC+00:00)

Cosmos 1869 Rocket - Pass Details

Date: 02 March 2021
Orbit: 605 x 633 km, 82.5° (Epoch: 14 April)

Event Time Altitude Azimuth Distance (km) Brightness Sun altitude
Rises 19:33:06 0° 173° (S) 2,857 6.8 -18.7°
Enters shadow 19:33:19 - 173° (S) 2,772 6.7 -18.7°
Exits shadow 19:39:26 49° 98° (E) 801 3.7 -19.7°
Maximum altitude 19:39:32 49° 94° (E) 801 3.7 -19.8°
Drops below altitude 10° 19:43:47 10° 20° (NNE) 1,993 6.1 -20.5°
Sets 19:46:04 0° 15° (NNE) 2,909 7.0 -20.8°
